Time,TemperatureF,DewpointF,PressureIn,WindDirection,WindDirectionDegrees,WindSpeedMPH,WindSpeedGustMPH,Humidity,HourlyPrecipIn,Conditions,Clouds,dailyrainin,SolarRadiationWatts/m^2,SoftwareType,DateUTC
2013-07-28 00:12:00,73.0,48.0,-100.00,West,268,6.0,18.0,41,0.00,,,0.00,0.000000,,2013-07-28 07:12:00,
2013-07-28 00:22:00,73.0,48.0,-100.00,West,268,6.0,18.0,41,0.00,,,0.00,0.000000,,2013-07-28 07:22:00,
2013-07-28 00:32:00,73.0,48.0,-100.00,West,268,6.0,18.0,41,0.00,,,0.00,0.000000,,2013-07-28 07:32:00,
2013-07-28 00:42:00,73.0,48.0,-100.00,West,268,6.0,18.0,41,0.00,,,0.00,0.000000,,2013-07-28 07:42:00,
2013-07-28 01:12:00,70.0,48.0,-100.00,SW,231,5.0,11.0,45,0.00,,,0.00,0.000000,,2013-07-28 08:12:00,
2013-07-28 01:22:00,70.0,48.0,-100.00,SW,231,5.0,11.0,45,0.00,,,0.00,0.000000,,2013-07-28 08:22:00,
2013-07-28 01:33:00,70.0,48.0,-100.00,SW,231,5.0,11.0,45,0.00,,,0.00,0.000000,,2013-07-28 08:33:00,
2013-07-28 01:42:00,70.0,48.0,-100.00,SW,231,5.0,11.0,45,0.00,,,0.00,0.000000,,2013-07-28 08:42:00,
2013-07-28 02:12:00,70.0,46.0,-100.00,West,281,7.0,9.0,43,0.00,,,0.00,0.000000,,2013-07-28 09:12:00,
2013-07-28 02:22:00,70.0,46.0,-100.00,West,281,7.0,9.0,43,0.00,,,0.00,0.000000,,2013-07-28 09:22:00,
2013-07-28 02:32:00,70.0,46.0,-100.00,West,281,7.0,9.0,43,0.00,,,0.00,0.000000,,2013-07-28 09:32:00,
2013-07-28 02:43:00,70.0,46.0,-100.00,West,281,7.0,9.0,43,0.00,,,0.00,0.000000,,2013-07-28 09:43:00,
2013-07-28 03:12:00,72.0,48.0,-100.00,West,265,7.0,10.0,43,0.00,,,0.00,0.000000,,2013-07-28 10:12:00,
2013-07-28 03:22:00,72.0,48.0,-100.00,West,265,7.0,10.0,43,0.00,,,0.00,0.000000,,2013-07-28 10:22:00,
2013-07-28 03:32:00,72.0,48.0,-100.00,West,265,7.0,10.0,43,0.00,,,0.00,0.000000,,2013-07-28 10:32:00,
2013-07-28 03:42:00,72.0,48.0,-100.00,West,265,7.0,10.0,43,0.00,,,0.00,0.000000,,2013-07-28 10:42:00,
2013-07-28 04:12:00,69.0,48.0,-100.00,WSW,244,7.0,12.0,47,0.00,,,0.00,0.000000,,2013-07-28 11:12:00,
2013-07-28 04:22:00,69.0,48.0,-100.00,WSW,244,7.0,12.0,47,0.00,,,0.00,0.000000,,2013-07-28 11:22:00,
2013-07-28 04:33:00,69.0,48.0,-100.00,WSW,244,7.0,12.0,47,0.00,,,0.00,0.000000,,2013-07-28 11:33:00,
2013-07-28 04:43:00,69.0,48.0,-100.00,WSW,244,7.0,12.0,47,0.00,,,0.00,0.000000,,2013-07-28 11:43:00,
2013-07-28 05:12:00,67.0,47.0,-100.00,SSE,151,6.0,9.0,48,0.00,,,0.00,0.000000,,2013-07-28 12:12:00,
2013-07-28 05:22:00,67.0,47.0,-100.00,SSE,151,6.0,9.0,48,0.00,,,0.00,0.000000,,2013-07-28 12:22:00,
2013-07-28 05:33:00,67.0,47.0,-100.00,SSE,151,6.0,9.0,48,0.00,,,0.00,0.000000,,2013-07-28 12:33:00,
2013-07-28 05:43:00,67.0,47.0,-100.00,SSE,151,6.0,9.0,48,0.00,,,0.00,0.000000,,2013-07-28 12:43:00,
2013-07-28 06:12:00,68.0,49.0,-100.00,SW,214,5.0,11.0,51,0.00,,,0.00,0.000000,,2013-07-28 13:12:00,
2013-07-28 06:22:00,68.0,49.0,-100.00,SW,214,5.0,11.0,51,0.00,,,0.00,0.000000,,2013-07-28 13:22:00,
2013-07-28 06:32:00,68.0,49.0,-100.00,SW,214,5.0,11.0,51,0.00,,,0.00,0.000000,,2013-07-28 13:32:00,
2013-07-28 06:43:00,68.0,49.0,-100.00,SW,214,5.0,11.0,51,0.00,,,0.00,0.000000,,2013-07-28 13:43:00,
2013-07-28 07:12:00,70.0,50.0,-100.00,SW,215,0.0,9.0,49,0.00,,,0.00,47.000000,,2013-07-28 14:12:00,
2013-07-28 07:22:00,70.0,50.0,-100.00,SW,215,0.0,9.0,49,0.00,,,0.00,47.000000,,2013-07-28 14:22:00,
2013-07-28 07:33:00,70.0,50.0,-100.00,SW,215,0.0,9.0,49,0.00,,,0.00,47.000000,,2013-07-28 14:33:00,
2013-07-28 07:43:00,70.0,50.0,-100.00,SW,215,0.0,9.0,49,0.00,,,0.00,47.000000,,2013-07-28 14:43:00,
2013-07-28 08:22:00,76.0,49.0,-100.00,WSW,241,4.0,7.0,39,0.00,,,0.00,248.000000,,2013-07-28 15:22:00,
2013-07-28 08:32:00,76.0,49.0,-100.00,WSW,241,4.0,7.0,39,0.00,,,0.00,248.000000,,2013-07-28 15:32:00,
2013-07-28 08:43:00,76.0,49.0,-100.00,WSW,241,4.0,7.0,39,0.00,,,0.00,248.000000,,2013-07-28 15:43:00,
2013-07-28 09:33:00,81.0,49.0,-100.00,West,266,7.0,12.0,33,0.00,,,0.00,481.000000,,2013-07-28 16:33:00,
2013-07-28 09:43:00,81.0,49.0,-100.00,West,266,7.0,12.0,33,0.00,,,0.00,481.000000,,2013-07-28 16:43:00,
2013-07-28 10:22:00,84.0,51.0,-100.00,WNW,282,4.0,12.0,32,0.00,,,0.00,705.000000,,2013-07-28 17:22:00,
2013-07-28 10:32:00,84.0,51.0,-100.00,WNW,282,4.0,12.0,32,0.00,,,0.00,705.000000,,2013-07-28 17:32:00,
2013-07-28 10:43:00,84.0,51.0,-100.00,WNW,282,4.0,12.0,32,0.00,,,0.00,705.000000,,2013-07-28 17:43:00,
2013-07-28 11:32:00,88.0,52.0,-100.00,SSW,208,4.0,9.0,29,0.00,,,0.00,902.000000,,2013-07-28 18:32:00,
2013-07-28 11:42:00,88.0,52.0,-100.00,SSW,208,4.0,9.0,29,0.00,,,0.00,902.000000,,2013-07-28 18:42:00,
2013-07-28 12:12:00,89.0,50.0,-100.00,SW,216,4.0,11.0,26,0.00,,,0.00,1048.000000,,2013-07-28 19:12:00,
2013-07-28 12:22:00,89.0,50.0,-100.00,SW,216,4.0,11.0,26,0.00,,,0.00,1048.000000,,2013-07-28 19:22:00,
2013-07-28 12:32:00,89.0,50.0,-100.00,SW,216,4.0,11.0,26,0.00,,,0.00,1048.000000,,2013-07-28 19:32:00,
2013-07-28 12:43:00,89.0,50.0,-100.00,SW,216,4.0,11.0,26,0.00,,,0.00,1048.000000,,2013-07-28 19:43:00,
2013-07-28 13:12:00,92.0,49.0,-100.00,SW,214,8.0,14.0,23,0.00,,,0.00,1143.000000,,2013-07-28 20:12:00,
2013-07-28 13:22:00,92.0,49.0,-100.00,SW,214,8.0,14.0,23,0.00,,,0.00,1143.000000,,2013-07-28 20:22:00,
2013-07-28 13:33:00,92.0,49.0,-100.00,SW,214,8.0,14.0,23,0.00,,,0.00,1143.000000,,2013-07-28 20:33:00,
2013-07-28 13:43:00,92.0,49.0,-100.00,SW,214,8.0,14.0,23,0.00,,,0.00,1143.000000,,2013-07-28 20:43:00,
2013-07-28 14:22:00,93.0,48.0,-100.00,South,180,3.0,15.0,22,0.00,,,0.00,1168.000000,,2013-07-28 21:22:00,
2013-07-28 14:33:00,93.0,48.0,-100.00,South,180,3.0,15.0,22,0.00,,,0.00,1168.000000,,2013-07-28 21:33:00,
2013-07-28 14:43:00,93.0,48.0,-100.00,South,180,3.0,15.0,22,0.00,,,0.00,1168.000000,,2013-07-28 21:43:00,
2013-07-28 15:22:00,95.0,48.0,-100.00,WNW,284,8.0,19.0,20,0.00,,,0.00,1130.000000,,2013-07-28 22:22:00,
2013-07-28 15:32:00,95.0,48.0,-100.00,WNW,284,8.0,19.0,20,0.00,,,0.00,1130.000000,,2013-07-28 22:32:00,
2013-07-28 15:43:00,95.0,48.0,-100.00,WNW,284,8.0,19.0,20,0.00,,,0.00,1130.000000,,2013-07-28 22:43:00,
2013-07-28 16:22:00,92.0,46.0,-100.00,West,266,7.0,19.0,21,0.00,,,0.00,623.000000,,2013-07-28 23:22:00,
2013-07-28 16:32:00,92.0,46.0,-100.00,West,266,7.0,19.0,21,0.00,,,0.00,623.000000,,2013-07-28 23:32:00,
2013-07-28 16:43:00,92.0,46.0,-100.00,West,266,7.0,19.0,21,0.00,,,0.00,623.000000,,2013-07-28 23:43:00,
2013-07-28 18:12:00,87.0,48.0,-100.00,South,182,18.0,39.0,26,-99.99,,,0.00,374.000000,,2013-07-29 01:12:00,
2013-07-28 18:24:00,87.0,48.0,-100.00,South,182,18.0,39.0,26,-99.99,,,0.00,374.000000,,2013-07-29 01:24:00,
2013-07-28 18:34:00,87.0,48.0,-100.00,South,182,18.0,39.0,26,-99.99,,,0.00,374.000000,,2013-07-29 01:34:00,
2013-07-28 18:42:00,87.0,48.0,-100.00,South,182,18.0,39.0,26,-99.99,,,0.00,374.000000,,2013-07-29 01:42:00,
2013-07-28 19:13:00,86.0,49.0,-100.00,South,181,17.0,26.0,28,0.00,,,0.00,480.000000,,2013-07-29 02:13:00,
2013-07-28 19:24:00,86.0,49.0,-100.00,South,181,17.0,26.0,28,0.00,,,0.00,480.000000,,2013-07-29 02:24:00,
2013-07-28 19:44:00,86.0,49.0,-100.00,South,181,17.0,26.0,28,0.00,,,0.00,480.000000,,2013-07-29 02:44:00,
2013-07-28 20:14:00,83.0,48.0,-100.00,South,180,11.0,19.0,30,0.00,,,0.00,116.000000,,2013-07-29 03:14:00,
2013-07-28 20:22:00,83.0,48.0,-100.00,South,180,11.0,19.0,30,0.00,,,0.00,116.000000,,2013-07-29 03:22:00,
2013-07-28 20:34:00,83.0,48.0,-100.00,South,180,11.0,19.0,30,0.00,,,0.00,116.000000,,2013-07-29 03:34:00,
2013-07-28 20:44:00,83.0,48.0,-100.00,South,180,11.0,19.0,30,0.00,,,0.00,116.000000,,2013-07-29 03:44:00,
2013-07-28 21:12:00,77.0,48.0,-100.00,SSW,202,6.0,15.0,36,0.00,,,0.00,9.000000,,2013-07-29 04:12:00,
2013-07-28 21:22:00,77.0,48.0,-100.00,SSW,202,6.0,15.0,36,0.00,,,0.00,9.000000,,2013-07-29 04:22:00,
2013-07-28 21:32:00,77.0,48.0,-100.00,SSW,202,6.0,15.0,36,0.00,,,0.00,9.000000,,2013-07-29 04:32:00,
2013-07-28 21:43:00,77.0,48.0,-100.00,SSW,202,6.0,15.0,36,0.00,,,0.00,9.000000,,2013-07-29 04:43:00,
2013-07-28 22:22:00,77.0,49.0,-100.00,SW,230,4.0,12.0,38,0.00,,,0.00,0.000000,,2013-07-29 05:22:00,
2013-07-28 22:32:00,77.0,49.0,-100.00,SW,230,4.0,12.0,38,0.00,,,0.00,0.000000,,2013-07-29 05:32:00,
2013-07-28 22:42:00,77.0,49.0,-100.00,SW,230,4.0,12.0,38,0.00,,,0.00,0.000000,,2013-07-29 05:42:00,
2013-07-28 23:12:00,73.0,46.0,-100.00,SSW,204,3.0,11.0,38,0.00,,,0.00,0.000000,,2013-07-29 06:12:00,
2013-07-28 23:22:00,73.0,46.0,-100.00,SSW,204,3.0,11.0,38,0.00,,,0.00,0.000000,,2013-07-29 06:22:00,
2013-07-28 23:32:00,73.0,46.0,-100.00,SSW,204,3.0,11.0,38,0.00,,,0.00,0.000000,,2013-07-29 06:32:00,
2013-07-28 23:43:00,73.0,46.0,-100.00,SSW,204,3.0,11.0,38,0.00,,,0.00,0.000000,,2013-07-29 06:43:00,